Location: B
(0.0000°N, 0.0000°E)
Time: 05:30:06
(UTC+01:00)

Amateur Radio Satellites - All Passes

Search period start: 22 January 2018 05:00
Search period end: 23 January 2018 05:00
Location: B, 0.0000°N, 0.0000°E

Satellite Date Start Highest point End Downlink Frequencies (MHz)
Time Altitude Azimuth
CUBESAT XI-V 22 Jan 05:02:09 05:06:47 58° 258° (WSW) 05:11:25 437.345
M-CUBED/EXP-1 PRIME 22 Jan 05:04:19 05:07:08 27° 106° (ESE) 05:10:04 437.505
JUGNU 22 Jan 05:11:53 05:17:38 49° 160° (SSE) 05:23:20 437.505
BEESAT 22 Jan 05:15:49 05:18:31 15° 257° (WSW) 05:21:13 436.000
nSIGHT-1 22 Jan 05:32:29 05:34:30 16° 54° (NE) 05:36:32 .
SRMSAT 22 Jan 05:34:52 05:38:03 15° 168° (SSE) 05:41:12 437.500
DOVE 4 22 Jan 05:36:53 05:41:36 70° 281° (WNW) 05:46:37 437.250
ISS 22 Jan 05:49:53 05:51:59 16° 54° (NE) 05:54:05 437.550
CUTE-I 22 Jan 06:02:01 06:05:25 17° 103° (ESE) 06:08:49 437.470
KAITUO 1B 22 Jan 06:10:35 06:12:35 14° 102° (ESE) 06:14:34 145.475/437.950
XW-2F 22 Jan 06:13:14 06:16:12 23° 102° (ESE) 06:19:10 145.980 - 146.000
KKS-1 22 Jan 06:17:57 06:22:20 62° 258° (WSW) 06:26:41 437.445
NUDT-PHONESAT 22 Jan 06:19:04 06:21:34 18° 101° (ESE) 06:24:04 437.300
XW-2D 22 Jan 06:23:20 06:26:50 40° 101° (ESE) 06:30:21 145.860 - 145.880
STARS 22 Jan 06:30:52 06:35:08 56° 78° (ENE) 06:39:23 437.465
RS-15 22 Jan 06:31:52 06:42:34 38° 111° (ESE) 06:53:26 29.354- 29.394
CUTE 1.7 + AOD 2 22 Jan 06:36:21 06:37:20 11° 102° (ESE) 06:38:20 437.475
XW-2B 22 Jan 06:40:45 06:44:27 77° 101° (E) 06:48:11 145.730 - 145.750
CUBEBUG 2 22 Jan 06:58:27 07:01:06 15° 101° (ESE) 07:03:43 437.445
JUGNU 22 Jan 07:00:52 07:06:41 60° 339° (NNW) 07:12:29 437.505
nSIGHT-1 22 Jan 07:08:39 07:10:28 14° 234° (SW) 07:12:17 .
LilacSat-2 22 Jan 07:10:50 07:14:04 28° 281° (W) 07:17:19 437.200
XW-2C 22 Jan 07:11:33 07:14:50 30° 281° (W) 07:18:08 145.795 - 145.815
FO-29 22 Jan 07:20:06 07:20:43 10° 79° (E) 07:21:21 435.910
SRMSAT 22 Jan 07:22:35 07:27:46 31° 161° (SSE) 07:32:57 437.500
HO-68 22 Jan 07:26:03 07:33:09 67° 104° (ESE) 07:40:16 435.675
ISS 22 Jan 07:26:16 07:28:15 15° 234° (SW) 07:30:15 437.550
AAUSAT CUBESAT 2 22 Jan 07:34:24 07:36:12 13° 102° (ESE) 07:37:59 437.432
CUTE-I 22 Jan 07:40:32 07:45:10 31° 283° (WNW) 07:49:50 437.470
KAITUO 1B 22 Jan 07:44:04 07:46:16 15° 281° (W) 07:48:28 145.475/437.950
NUDT-PHONESAT 22 Jan 07:53:46 07:55:07 12° 281° (W) 07:56:28 437.300
SEEDS 22 Jan 07:53:54 07:58:02 87° 101° (E) 08:02:13 437.485
XW-2A 22 Jan 07:55:24 07:57:37 17° 101° (E) 07:59:51 145.665 - 145.685
PCSat 22 Jan 08:06:23 08:09:28 15° 110° (ESE) 08:12:33 145.827
BEESAT 3 22 Jan 08:08:55 08:12:10 25° 112° (ESE) 08:15:26 437.485
CUTE 1.7 + AOD 2 22 Jan 08:09:19 08:12:52 27° 281° (WNW) 08:16:27 437.475
STRAND 1 22 Jan 08:26:28 08:31:28 57° 257° (WSW) 08:36:26 437.568
CUBEBUG 2 22 Jan 08:33:34 08:37:26 26° 282° (WNW) 08:41:15 437.445
UWE-3 22 Jan 08:35:54 08:40:17 48° 282° (WNW) 08:44:34 435.000/436.395/437.385
RS-15 22 Jan 08:43:32 08:54:35 42° 291° (WNW) 09:05:54 29.354- 29.394
JUGNU 22 Jan 08:51:18 08:55:54 23° 343° (NNW) 09:00:29 437.505
ZACube-1 22 Jan 08:56:51 09:01:10 57° 282° (WNW) 09:05:24 437.345
FO-29 22 Jan 08:57:57 09:05:39 78° 257° (WSW) 09:12:37 435.910
BEESAT 2 22 Jan 08:59:59 09:03:03 22° 112° (ESE) 09:06:09 435.950
AO-73 22 Jan 09:02:52 09:07:09 56° 282° (WNW) 09:11:22 145.935
AAUSAT CUBESAT 2 22 Jan 09:08:07 09:11:21 23° 281° (W) 09:14:37 437.432
SRMSAT 22 Jan 09:11:06 09:17:03 84° 159° (SSE) 09:23:00 437.500
HO-68 22 Jan 09:18:05 09:20:29 12° 285° (WNW) 09:22:54 435.675
DELFI C3 22 Jan 09:33:22 09:36:21 21° 102° (ESE) 09:39:20 145.870
Oscar 11 22 Jan 09:34:55 09:38:49 35° 281° (WNW) 09:42:45 .
TIGRISAT 22 Jan 09:46:51 09:50:10 22° 78° (ENE) 09:53:29 435.000
PCSat 22 Jan 09:47:44 09:52:35 34° 289° (WNW) 09:57:26 145.827
BEESAT 3 22 Jan 09:48:28 09:49:26 11° 293° (WNW) 09:50:24 437.485
Max Valier Satellite 22 Jan 09:56:55 09:59:59 26° 101° (ESE) 10:03:03 145.860
UNISAT 6 22 Jan 10:01:44 10:05:47 40° 78° (ENE) 10:09:53 437.425
EO-88 22 Jan 10:12:39 10:15:41 26° 101° (ESE) 10:18:44 145.990 - 145.960
YUBILEINY 22 Jan 10:32:36 10:39:34 27° 87° (E) 10:46:30 435.215
BEESAT 2 22 Jan 10:38:49 10:40:30 12° 292° (WNW) 10:42:11 435.950
JUGNU 22 Jan 10:43:37 10:45:38 12° 351° (N) 10:47:38 437.505
SRMSAT 22 Jan 11:00:55 11:06:18 35° 341° (NNW) 11:11:41 437.500
DELFI C3 22 Jan 11:09:04 11:10:48 13° 281° (WNW) 11:12:33 145.870
AO-85 22 Jan 11:11:37 11:15:26 68° 291° (WNW) 11:19:15 145.980
AIST 2D 22 Jan 11:20:24 11:23:19 24° 79° (E) 11:26:12 435.315
TIGRISAT 22 Jan 11:24:07 11:26:35 15° 258° (WSW) 11:29:03 435.000
PRISM 22 Jan 11:25:16 11:29:22 87° 259° (W) 11:33:26 437.425
LO-87 22 Jan 11:27:44 11:30:47 26° 101° (E) 11:33:51 145.935 - 145.965
POLYITAN 1 22 Jan 11:46:17 11:48:07 13° 78° (ENE) 11:49:58 437.675
NANOSAT C BR1 22 Jan 11:59:41 12:02:26 17° 78° (ENE) 12:05:11 145.865
ESTCUBE 1 22 Jan 12:00:19 12:04:43 64° 102° (ESE) 12:09:09 437.505/2401.250
O/OREOS (USA 219) 22 Jan 12:10:14 12:14:43 81° 255° (WSW) 12:19:15 437.305
FALCONSAT 3 22 Jan 12:13:35 12:17:13 67° 39° (NE) 12:20:51 435.103
QB50P2 22 Jan 12:13:59 12:17:55 39° 78° (ENE) 12:21:51 145.880/145.840
YUBILEINY 22 Jan 12:28:11 12:35:56 38° 267° (W) 12:43:46 435.215
DUCHIFAT 1 22 Jan 12:41:11 12:45:17 60° 79° (ENE) 12:49:24 145.980
EO-79 22 Jan 12:44:06 12:48:17 82° 258° (WSW) 12:52:29 145.935-145.965
SRMSAT 22 Jan 12:52:25 12:55:57 16° 347° (NNW) 12:59:30 437.500
SPROUT 22 Jan 13:16:14 13:20:29 68° 282° (WNW) 13:24:45 437.525
POLYITAN 1 22 Jan 13:20:13 13:23:37 24° 258° (WSW) 13:27:02 437.675
AO-91 22 Jan 13:26:13 13:28:19 15° 80° (E) 13:30:21 145.960
VELOX 1 22 Jan 13:29:58 13:34:21 82° 100° (E) 13:38:48 145.980
NANOSAT C BR1 22 Jan 13:35:01 13:37:52 18° 258° (WSW) 13:40:42 145.865
BUGSAT 1 22 Jan 13:37:08 13:41:03 53° 78° (ENE) 13:44:59 437.445
DX 1 22 Jan 13:43:50 13:46:03 14° 103° (ESE) 13:48:15 434.975-435.025
FALCONSAT 3 22 Jan 13:55:11 13:56:14 11° 215° (SW) 13:57:18 435.103
50 SAT 22 Jan 14:01:30 14:03:32 16° 102° (ESE) 14:05:36 437.505
Gurwin Techsat 1B 22 Jan 14:03:43 14:08:45 44° 77° (ENE) 14:13:46 435.225
Oscar 19 22 Jan 14:06:08 14:11:18 69° 77° (ENE) 14:16:27 437.125/150
JUGNU 22 Jan 14:22:43 14:25:50 15° 12° (NNE) 14:28:58 437.505
UKube-1 22 Jan 15:02:35 15:06:53 80° 281° (W) 15:11:13 .
AO-91 22 Jan 15:03:31 15:04:32 11° 257° (WSW) 15:05:32 145.960
NO-84 22 Jan 15:11:33 15:15:17 58° 301° (WNW) 15:18:43 435.350 FM
DX 1 22 Jan 15:18:25 15:21:56 24° 282° (WNW) 15:25:29 434.975-435.025
AO-7 22 Jan 15:19:22 15:26:40 34° 73° (ENE) 15:33:56 .
ITUPSAT 1 22 Jan 15:21:16 15:24:12 16° 103° (ESE) 15:27:07 437.325
MOZHAYETS 4 22 Jan 15:36:15 15:40:45 56° 102° (ESE) 15:45:14
CUBESAT XI-V 22 Jan 15:46:19 15:47:47 11° 102° (ESE) 15:49:14 437.345
Gurwin Techsat 1B 22 Jan 15:46:43 15:48:23 11° 257° (WSW) 15:50:03 435.225
BEESAT 22 Jan 15:58:07 16:02:45 53° 103° (ESE) 16:07:24 436.000
JUGNU 22 Jan 16:10:12 16:15:22 32° 19° (NNE) 16:20:35 437.505
DOVE 4 22 Jan 16:25:08 16:25:24 10° 80° (E) 16:25:42 437.250
SRMSAT 22 Jan 16:34:31 16:36:32 12° 8° (N) 16:38:33 437.500
SO-50 22 Jan 16:37:34 16:42:19 66° 248° (WSW) 16:47:05 436.795
ITAMSAT 1 22 Jan 16:55:01 16:59:59 47° 257° (WSW) 17:04:56 435.822/435.867
ITUPSAT 1 22 Jan 16:57:46 17:01:44 26° 283° (WNW) 17:05:42 437.325
M-CUBED/EXP-1 PRIME 22 Jan 17:02:00 17:06:12 35° 75° (ENE) 17:10:15 437.505
AO-7 22 Jan 17:11:55 17:19:03 32° 253° (WSW) 17:26:13 .
CUBESAT XI-V 22 Jan 17:20:47 17:24:51 32° 282° (WNW) 17:28:56 437.345
JUGNU 22 Jan 17:58:33 18:04:28 86° 21° (NNE) 18:10:28 437.505
DOVE 4 22 Jan 17:58:43 18:02:55 33° 257° (WSW) 18:06:53 437.250
KAITUO 1B 22 Jan 18:03:27 18:04:30 11° 79° (E) 18:05:33 145.475/437.950
XW-2F 22 Jan 18:06:24 18:09:07 19° 79° (E) 18:11:50 145.980 - 146.000
NUDT-PHONESAT 22 Jan 18:10:33 18:12:24 13° 79° (E) 18:14:14 437.300
RS-15 22 Jan 18:16:03 18:25:08 29° 68° (ENE) 18:33:57 29.354- 29.394
XW-2D 22 Jan 18:16:48 18:20:16 32° 79° (E) 18:23:42 145.860 - 145.880
SRMSAT 22 Jan 18:21:58 18:26:32 22° 16° (NNE) 18:31:05 437.500
KKS-1 22 Jan 18:30:22 18:34:33 41° 282° (WNW) 18:38:47 437.445
XW-2B 22 Jan 18:34:08 18:37:55 59° 79° (E) 18:41:41 145.730 - 145.750
M-CUBED/EXP-1 PRIME 22 Jan 18:38:34 18:40:12 12° 253° (WSW) 18:41:48 437.505
nSIGHT-1 22 Jan 18:39:31 18:42:08 24° 305° (NW) 18:44:45 .
CUTE-I 22 Jan 18:39:37 18:44:47 50° 77° (ENE) 18:49:54 437.470
STARS 22 Jan 18:41:17 18:45:43 81° 104° (ESE) 18:50:08 437.465
CUTE 1.7 + AOD 2 22 Jan 18:41:21 18:43:34 14° 79° (ENE) 18:45:46 437.475
ISS 22 Jan 18:59:30 19:02:11 23° 306° (NW) 19:04:51 437.550
XW-2C 22 Jan 19:04:42 19:08:19 39° 259° (WSW) 19:11:56 145.795 - 145.815
LilacSat-2 22 Jan 19:04:43 19:08:18 35° 259° (WSW) 19:11:52 437.200
CUBEBUG 2 22 Jan 19:09:58 19:13:01 19° 78° (ENE) 19:16:07 437.445
HO-68 22 Jan 19:17:49 19:24:50 57° 76° (ENE) 19:31:47 435.675
STRAND 1 22 Jan 19:21:10 19:25:02 22° 103° (ESE) 19:28:55 437.568
KAITUO 1B 22 Jan 19:35:17 19:38:12 21° 259° (WSW) 19:41:05 145.475/437.950
AAUSAT CUBESAT 2 22 Jan 19:37:15 19:39:30 14° 79° (ENE) 19:41:45 437.432
XW-2F 22 Jan 19:41:09 19:42:56 13° 258° (WSW) 19:44:43 145.980 - 146.000
NUDT-PHONESAT 22 Jan 19:43:26 19:45:57 17° 259° (WSW) 19:48:27 437.300
JUGNU 22 Jan 19:48:13 19:53:35 35° 199° (SSW) 19:59:01 437.505
SEEDS 22 Jan 19:58:54 20:03:09 79° 258° (WSW) 20:07:22 437.485
BEESAT 3 22 Jan 20:00:19 20:03:24 23° 68° (ENE) 20:06:27 437.485
Oscar 11 22 Jan 20:09:52 20:11:37 12° 78° (ENE) 20:13:21 .
SRMSAT 22 Jan 20:10:07 20:15:59 55° 21° (NNE) 20:21:51 437.500
CUTE 1.7 + AOD 2 22 Jan 20:15:43 20:19:06 23° 258° (WSW) 20:22:30 437.475
RS-15 22 Jan 20:26:41 20:37:03 47° 249° (WSW) 20:47:17 29.354- 29.394
FO-29 22 Jan 20:31:05 20:36:20 53° 104° (ESE) 20:42:12 435.910
PCSat 22 Jan 20:40:25 20:45:35 48° 71° (ENE) 20:50:46 145.827
CUBEBUG 2 22 Jan 20:46:48 20:49:22 16° 259° (W) 20:51:59 437.445
UWE-3 22 Jan 20:47:06 20:50:55 32° 259° (W) 20:54:49 435.000/436.395/437.385
BEESAT 2 22 Jan 20:52:39 20:55:43 22° 68° (ENE) 20:58:46 435.950
STRAND 1 22 Jan 20:59:58 21:03:56 23° 283° (WNW) 21:07:56 437.568
ZACube-1 22 Jan 21:06:28 21:10:31 41° 259° (W) 21:14:39 437.345
HO-68 22 Jan 21:08:25 21:12:10 15° 255° (WSW) 21:15:55 435.675
XW-2A 22 Jan 21:09:33 21:12:06 19° 259° (WSW) 21:14:38 145.665 - 145.685
AAUSAT CUBESAT 2 22 Jan 21:11:32 21:14:40 21° 258° (WSW) 21:17:47 437.432
AO-73 22 Jan 21:12:05 21:16:08 41° 259° (W) 21:20:16 145.935
DELFI C3 22 Jan 21:31:24 21:34:14 19° 79° (ENE) 21:37:02 145.870
JUGNU 22 Jan 21:39:33 21:43:07 16° 193° (SSW) 21:46:42 437.505
BEESAT 3 22 Jan 21:40:23 21:40:38 10° 248° (WSW) 21:40:53 437.485
Oscar 11 22 Jan 21:43:47 21:47:28 27° 258° (WSW) 21:51:08 .
AO-85 22 Jan 21:45:08 21:47:37 13° 68° (ENE) 21:50:06 145.980
Max Valier Satellite 22 Jan 21:47:58 21:50:39 19° 79° (E) 21:53:19 145.860
TIGRISAT 22 Jan 21:59:04 22:03:17 35° 102° (ESE) 22:07:26 435.000
SRMSAT 22 Jan 21:59:21 22:05:13 55° 201° (SSW) 22:11:05 437.500
EO-88 22 Jan 22:02:29 22:05:01 18° 79° (E) 22:07:33 145.990 - 145.960
UNISAT 6 22 Jan 22:14:28 22:19:04 66° 101° (ESE) 22:23:36 437.425
PCSat 22 Jan 22:27:37 22:28:44 11° 250° (WSW) 22:29:52 145.827
BEESAT 2 22 Jan 22:31:48 22:33:09 11° 248° (WSW) 22:34:29 435.950
YUBILEINY 22 Jan 23:04:34 23:13:09 55° 93° (E) 23:21:40 435.215
DELFI C3 22 Jan 23:06:43 23:08:41 13° 258° (WSW) 23:10:38 145.870
AIST 2D 22 Jan 23:06:55 23:08:43 14° 101° (ESE) 23:10:32 435.315
LO-87 22 Jan 23:15:59 23:18:15 16° 79° (E) 23:20:30 145.935 - 145.965
Max Valier Satellite 22 Jan 23:22:46 23:24:11 12° 259° (WSW) 23:25:35 145.860
AO-85 22 Jan 23:22:48 23:27:51 43° 249° (WSW) 23:32:55 145.980
PRISM 22 Jan 23:27:26 23:31:31 81° 283° (WNW) 23:35:40 437.425
JUGNU 22 Jan 23:32:39 23:33:12 10° 183° (S) 23:33:45 437.505
EO-88 22 Jan 23:36:56 23:38:22 12° 258° (WSW) 23:39:48 145.990 - 145.960
TIGRISAT 22 Jan 23:38:34 23:39:39 11° 283° (WNW) 23:40:43 435.000
SRMSAT 22 Jan 23:50:07 23:54:40 22° 197° (SSW) 23:59:13 437.500
POLYITAN 1 22 Jan 23:51:35 23:54:10 16° 102° (ESE) 23:56:43 437.675
FALCONSAT 3 22 Jan 23:56:26 00:00:05 62° 143° (SE) 00:03:44 435.103
NANOSAT C BR1 23 Jan 00:04:43 00:07:54 21° 102° (ESE) 00:11:04 145.865
ESTCUBE 1 23 Jan 00:14:12 00:18:44 80° 257° (WSW) 00:23:16 437.505/2401.250
QB50P2 23 Jan 00:19:53 00:23:59 49° 102° (ESE) 00:28:07 145.880/145.840
O/OREOS (USA 219) 23 Jan 00:21:31 00:25:52 45° 284° (WNW) 00:30:10 437.305
AIST 2D 23 Jan 00:39:53 00:41:35 13° 281° (W) 00:43:19 435.315
DUCHIFAT 1 23 Jan 00:46:11 00:50:24 72° 102° (ESE) 00:54:37 145.980
EO-79 23 Jan 00:49:56 00:54:09 67° 282° (WNW) 00:58:22 145.935-145.965
LO-87 23 Jan 00:50:00 00:51:22 12° 259° (WSW) 00:52:44 145.935 - 145.965
YUBILEINY 23 Jan 01:04:00 01:09:32 18° 273° (W) 01:15:04 435.215
Oscar 19 23 Jan 01:05:24 01:05:54 10° 103° (ESE) 01:06:25 437.125/150
JUGNU 23 Jan 01:21:18 01:23:26 12° 172° (S) 01:25:33 437.505
SPROUT 23 Jan 01:23:14 01:27:21 52° 258° (WSW) 01:31:28 437.525
POLYITAN 1 23 Jan 01:26:31 01:29:39 20° 282° (WNW) 01:32:47 437.675
AO-91 23 Jan 01:34:06 01:38:49 35° 102° (ESE) 01:43:42 145.960
FALCONSAT 3 23 Jan 01:37:44 01:39:06 12° 324° (NW) 01:40:29 435.103
BUGSAT 1 23 Jan 01:39:47 01:43:57 61° 102° (ESE) 01:48:06 437.445
NANOSAT C BR1 23 Jan 01:40:51 01:43:19 15° 282° (WNW) 01:45:47 145.865
VELOX 1 23 Jan 01:41:26 01:45:50 68° 257° (WSW) 01:50:10 145.980
SRMSAT 23 Jan 01:42:40 01:44:40 12° 188° (S) 01:46:39 437.500
DX 1 23 Jan 01:52:36 01:55:37 18° 78° (ENE) 01:58:37 434.975-435.025
Oscar 19 23 Jan 02:40:04 02:44:55 45° 283° (WNW) 02:49:48 437.125/150
Gurwin Techsat 1B 23 Jan 02:41:54 02:47:08 64° 283° (WNW) 02:52:24 435.225
NO-84 23 Jan 02:52:36 02:55:50 80° 238° (WSW) 02:59:23 435.350 FM
50 SAT 23 Jan 03:07:18 03:09:46 22° 258° (WSW) 03:12:13 437.505
JUGNU 23 Jan 03:08:40 03:13:16 22° 164° (SSE) 03:17:49 437.505
UKube-1 23 Jan 03:10:58 03:15:13 60° 258° (WSW) 03:19:26 .
AO-91 23 Jan 03:11:59 03:14:58 15° 281° (W) 03:18:02 145.960
SO-50 23 Jan 03:13:51 03:14:45 11° 113° (ESE) 03:15:38 436.795
DX 1 23 Jan 03:28:33 03:31:31 18° 257° (WSW) 03:34:28 434.975-435.025
ITUPSAT 1 23 Jan 03:42:12 03:46:22 31° 78° (ENE) 03:50:32 437.325
AO-7 23 Jan 03:44:57 03:53:02 56° 106° (ESE) 04:01:05 .
ITAMSAT 1 23 Jan 03:51:15 03:55:38 28° 103° (ESE) 04:00:03 435.822/435.867
MOZHAYETS 4 23 Jan 03:52:42 03:57:20 85° 261° (W) 04:01:56
CUBESAT XI-V 23 Jan 04:02:27 04:05:59 21° 78° (ENE) 04:09:30 437.345
BEESAT 23 Jan 04:19:48 04:24:34 79° 258° (WSW) 04:29:18 436.000
DOVE 4 23 Jan 04:41:22 04:45:04 22° 103° (ESE) 04:48:55 437.250
SO-50 23 Jan 04:50:58 04:54:57 33° 292° (WNW) 04:58:56 436.795
